[[{"header":{"parameterUnit":"m.s-1","parameterCategory":1,"la1":30.2991,"la2":30.254,"lo1":-89.0895,"lo2":-89.0444,"dy":0.0017,"dx":0.0017,"nx":28,"ny":28,"refTime":"2025-03-17T03:00:00:Z","depth":0,"parameterNumber":2,"parameterNumberName":"U-component_of_WINDS"},"data":[0,0,0,0,0,0,0,0,0,0,0,0,0,0,0,0,0,0,0,0,0,0,0,0,0,0,0,0,0,0,0,0,0,0,0,0,0,0,0,0,0,0,0,0,0,0,0,0,0,0,0,0,0,0,0,0,0,0,0.0706,0.0705,0,0.0639,0.0638,0.0638,0.0596,0.0596,0.0595,0.0595,0.0526,0.0525,0.0523,0,0,0,0,0,0,0,0,0,0,0,0,0,0.0797,0.0795,0.0706,0.0705,0.0704,0.0639,0.0638,0.0637,0.0596,0.0595,0.0595,0.0595,0.0527,0.0525,0.0523,0,0,0,0,0,0,0,0,0,0,0,0,0,0.0746,0.0795,0.0706,0.0676,0.0672,0.0639,0.0638,0.0637,0.0596,0.0595,0.0595,0.0595,0.0527,0.0525,0.0523,0.0515,0,0,0.0515,0.0514,0,0,0,0,0,0,0,0,0.0749,0.0743,0.0681,0.0678,0.0674,0.0625,0.0645,0.0596,0.0596,0.0625,0.0595,0.0595,0.0559,0.0554,0.0543,0.0511,0.0508,0.0515,0.0514,0.0512,0.0512,0,0,0,0,0,0,0,0.0753,0.0746,0.0679,0.068,0.0676,0.0665,0.0658,0.0636,0.0595,0.0622,0.0619,0.0612,0.0557,0.0545,0.0541,0.0507,0.0515,0.0513,0.0511,0.051,0.0466,0.0466,0,0,0,0,0,0,0.0761,0.0749,0.0682,0.0677,0.0712,0.0664,0.0655,0.0641,0.0595,0.0588,0.0612,0.061,0.0549,0.0544,0.0538,0.0526,0.0512,0.051,0.0509,0.0466,0.0466,0.0466,0,0,0,0,0,0,0.0763,0.0756,0.0684,0.0712,0.0702,0.0663,0.0647,0.064,0.0628,0.0587,0.058,0.0607,0.0549,0.0541,0.0521,0.0523,0.0509,0.0507,0.0465,0.0466,0.0466,0.0501,0,0,0,0,0,0,0.0766,0.0757,0.0754,0.0713,0.0701,0.0668,0.0647,0.0639,0.0624,0.062,0.0581,0.0574,0.0548,0.0525,0.0518,0.0519,0.0505,0.0465,0.0466,0.0466,0.05,0.0503,0.0505,0,0,0,0,0,0.077,0.0766,0.0754,0.0746,0.0696,0.0669,0.0662,0.0633,0.0624,0.062,0.0594,0.0575,0.0523,0.0523,0.0515,0.0516,0.0465,0.0466,0.0466,0.0498,0.0502,0.0505,0,0,0,0,0,0,0.0808,0.076,0.0746,0.0729,0.0703,0.0662,0.0656,0.0638,0.0614,0.0612,0.0576,0.0568,0.055,0.0531,0.0531,0.0505,0.0492,0.0491,0.0519,0.0522,0.0525,0.053,0.0503,0,0,0,0,0,0.0814,0.0796,0.0755,0.0744,0.0732,0.0696,0.0683,0.0663,0.0635,0.0624,0.0596,0.057,0.0547,0.0534,0.0511,0.0496,0.0487,0.0493,0.0496,0.0498,0.0498,0.0489,0.0491,0.0468,0.0468,0.0468,0,0,0.0828,0.0799,0.079,0.0751,0.0729,0.0711,0.0688,0.0669,0.0655,0.0621,0.06,0.0579,0.0546,0.0529,0.052,0.0512,0.0502,0.0499,0.0501,0.05,0.049,0.0492,0.0494,0.0469,0.0469,0.0469,0,0,0.0843,0.0819,0.0807,0.0785,0.0752,0.0728,0.0726,0.0687,0.0671,0.065,0.0623,0.0606,0.0569,0.0547,0.0531,0.0537,0.0518,0.0531,0.0546,0.0537,0.0539,0.054,0.0543,0.0544,0.0531,0.0531,0.0531,0,0.0863,0.0835,0.0804,0.0787,0.077,0.0738,0.0726,0.0706,0.0667,0.0657,0.0648,0.0601,0.0577,0.0554,0.0555,0.0543,0.0539,0.0535,0.0541,0.0542,0.0543,0.0545,0.0546,0.0532,0.0532,0.0532,0.0532,0,0.0862,0.0843,0.0837,0.08,0.0783,0.0769,0.0735,0.0722,0.0703,0.068,0.0658,0.0628,0.0599,0.0592,0.0573,0.0566,0.0562,0.0548,0.0534,0.0548,0.0549,0.0549,0.0535,0.0534,0.0534,0.0533,0,0,0.09,0.0846,0.0844,0.0827,0.0788,0.0772,0.0756,0.0727,0.0716,0.069,0.0676,0.0645,0.0632,0.0614,0.0592,0.0585,0.0592,0.0571,0.057,0.0576,0.0582,0.0593,0.0595,0.0579,0.0579,0.0579,0.0585,0,0.0909,0.0879,0.085,0.083,0.0812,0.0781,0.0767,0.0741,0.0719,0.07,0.0676,0.0655,0.0639,0.0628,0.0619,0.0593,0.0592,0.0592,0.0565,0.0565,0.0575,0.0595,0.0607,0.0614,0.0585,0.0585,0.0585,0,0.0916,0.0891,0.087,0.0832,0.0823,0.0811,0.0783,0.0765,0.0735,0.072,0.07,0.0677,0.0658,0.0646,0.062,0.062,0.0607,0.0593,0.0592,0.0589,0.0576,0.0593,0.0616,0.0617,0.0586,0.0586,0.0586,0,0.0946,0.0908,0.089,0.0876,0.0831,0.0824,0.0805,0.0774,0.0759,0.0734,0.0723,0.0697,0.0682,0.0662,0.0632,0.0626,0.0609,0.0594,0.0596,0.0597,0.0594,0.0595,0.0616,0.0585,0.0585,0.0585,0.0585,0,0.096,0.0948,0.0903,0.0892,0.0877,0.0844,0.0831,0.0809,0.0782,0.0766,0.0738,0.0723,0.0685,0.0666,0.0643,0.0625,0.0618,0.0605,0.0599,0.0608,0.061,0.06,0.0599,0.0586,0.0586,0.0586,0.0586,0,0.0991,0.096,0.0939,0.0898,0.0888,0.0879,0.0844,0.0832,0.0809,0.0789,0.0782,0.0745,0.0722,0.069,0.0656,0.0641,0.0626,0.0616,0.0636,0.0633,0.0636,0.0636,0.0652,0.0652,0.0621,0.0622,0.0622,0,0.1002,0.0992,0.0951,0.0938,0.092,0.09,0.0884,0.0851,0.0836,0.0801,0.0793,0.0767,0.0745,0.0708,0.0678,0.0652,0.0642,0.0649,0.0638,0.0647,0.0642,0.0644,0.0643,0.0652,0.0653,0.0653,0.0653,0,0.1025,0.101,0.0989,0.0962,0.0944,0.0921,0.0897,0.0888,0.0849,0.0833,0.0809,0.0791,0.0757,0.0732,0.0702,0.0682,0.0661,0.0657,0.0656,0.0665,0.0677,0.0671,0.0644,0.0657,0.0657,0.0656,0.0656,0.0656,0.1047,0.1037,0.1006,0.0983,0.0961,0.0939,0.0926,0.09,0.0879,0.0849,0.083,0.0806,0.0776,0.0734,0.0715,0.0696,0.0688,0.0687,0.0686,0.0687,0.069,0.068,0.069,0.069,0.069,0.069,0.069,0,0.1069,0.1047,0.1026,0.0993,0.0975,0.0957,0.0929,0.0915,0.0894,0.0868,0.0847,0.0818,0.0794,0.0761,0.0734,0.0725,0.0715,0.0719,0.072,0.0716,0.0698,0.0702,0.0728,0.0728,0.0728,0.0728,0.0728,0.0728,0.1078,0.106,0.1041,0.1012,0.099,0.0967,0.0953,0.0932,0.0911,0.0881,0.086,0.0839,0.081,0.0781,0.0758,0.0749,0.074,0.0748,0.0736,0.072,0.0717,0.0714,0.0717,0.0746,0.0746,0.0755,0.0755,0.0755]},{"header":{"parameterUnit":"m.s-1","parameterCategory":1,"la1":30.2991,"la2":30.254,"lo1":-89.0895,"lo2":-89.0444,"dy":0.0017,"dx":0.0017,"nx":28,"ny":28,"refTime":"2025-03-17T03:00:00:Z","depth":0,"parameterNumber":3,"parameterNumberName":"V-component_of_WINDS"},"data":[0,0,0,0,0,0,0,0,0,0,0,0,0,0,0,0,0,0,0,0,0,0,0,0,0,0,0,0,0,0,0,0,0,0,0,0,0,0,0,0,0,0,0,0,0,0,0,0,0,0,0,0,0,0,0,0,0,0,-0.1535,-0.1536,0,-0.1643,-0.1644,-0.1645,-0.1686,-0.1686,-0.1685,-0.1685,-0.1799,-0.1802,-0.1805,0,0,0,0,0,0,0,0,0,0,0,0,0,-0.1367,-0.137,-0.1535,-0.1536,-0.1537,-0.1642,-0.1644,-0.1645,-0.1686,-0.1686,-0.1685,-0.1685,-0.1797,-0.1801,-0.1805,0,0,0,0,0,0,0,0,0,0,0,0,0,-0.1454,-0.1371,-0.1535,-0.157,-0.1575,-0.1642,-0.1644,-0.1646,-0.1686,-0.1686,-0.1685,-0.1685,-0.1796,-0.1801,-0.1806,-0.1847,0,0,-0.1821,-0.1823,0,0,0,0,0,0,0,0,-0.1449,-0.146,-0.1564,-0.1568,-0.1573,-0.165,-0.1626,-0.1713,-0.1686,-0.1644,-0.1685,-0.1684,-0.175,-0.1759,-0.178,-0.1852,-0.1857,-0.1822,-0.1825,-0.1827,-0.1828,0,0,0,0,0,0,0,-0.1443,-0.1456,-0.1578,-0.1565,-0.1571,-0.1582,-0.1594,-0.1643,-0.1698,-0.1648,-0.1651,-0.1663,-0.1752,-0.1775,-0.1783,-0.1858,-0.1821,-0.1826,-0.1829,-0.1831,-0.197,-0.197,0,0,0,0,0,0,-0.143,-0.145,-0.1574,-0.1581,-0.1508,-0.1585,-0.1599,-0.1626,-0.1698,-0.1708,-0.1663,-0.1664,-0.1767,-0.1777,-0.1787,-0.184,-0.1827,-0.1831,-0.1834,-0.1969,-0.197,-0.1971,0,0,0,0,0,0,-0.1427,-0.1441,-0.157,-0.1516,-0.1534,-0.1589,-0.1619,-0.1628,-0.1651,-0.171,-0.172,-0.1676,-0.1767,-0.178,-0.1831,-0.1844,-0.1834,-0.1838,-0.1968,-0.1969,-0.197,-0.1945,0,0,0,0,0,0,-0.1422,-0.1439,-0.1455,-0.1516,-0.1536,-0.1611,-0.162,-0.1631,-0.1659,-0.1662,-0.1725,-0.1735,-0.1767,-0.1824,-0.1836,-0.1851,-0.1842,-0.1967,-0.1969,-0.197,-0.1945,-0.1945,-0.1945,0,0,0,0,0,-0.1416,-0.1444,-0.1455,-0.147,-0.1556,-0.1612,-0.1623,-0.166,-0.166,-0.1677,-0.1714,-0.1733,-0.1841,-0.1829,-0.1843,-0.1859,-0.1967,-0.1968,-0.197,-0.1945,-0.1945,-0.1945,0,0,0,0,0,0,-0.1383,-0.1453,-0.1466,-0.1515,-0.1557,-0.1619,-0.164,-0.1659,-0.1702,-0.1703,-0.1747,-0.1761,-0.1809,-0.1839,-0.1825,-0.1903,-0.1905,-0.191,-0.1881,-0.1881,-0.1882,-0.1873,-0.1846,0,0,0,0,0,-0.1382,-0.142,-0.1479,-0.1517,-0.1537,-0.1585,-0.161,-0.1635,-0.168,-0.1699,-0.174,-0.1785,-0.1829,-0.1857,-0.1901,-0.1949,-0.1964,-0.1968,-0.1968,-0.1968,-0.1971,-0.1999,-0.2002,-0.1976,-0.1976,-0.1976,0,0,-0.1379,-0.1422,-0.1444,-0.1511,-0.1547,-0.1586,-0.16,-0.1641,-0.1671,-0.1705,-0.1756,-0.1788,-0.1841,-0.1891,-0.1915,-0.1918,-0.1981,-0.197,-0.1969,-0.1973,-0.2001,-0.2004,-0.2006,-0.1977,-0.1977,-0.1976,0,0,-0.1395,-0.1431,-0.1466,-0.1501,-0.1554,-0.1586,-0.1594,-0.1653,-0.1675,-0.1726,-0.1753,-0.179,-0.1865,-0.1901,-0.193,-0.1959,-0.1978,-0.1972,-0.1973,-0.2,-0.2002,-0.2004,-0.2015,-0.2018,-0.1975,-0.1975,-0.1975,0,-0.1385,-0.1445,-0.1482,-0.1522,-0.1551,-0.1583,-0.1619,-0.1652,-0.1717,-0.1737,-0.1739,-0.1833,-0.1871,-0.193,-0.1937,-0.1959,-0.1971,-0.1965,-0.1998,-0.2001,-0.2003,-0.2014,-0.2018,-0.1974,-0.1974,-0.1975,-0.1975,0,-0.143,-0.1471,-0.1494,-0.1554,-0.1586,-0.1624,-0.1668,-0.1696,-0.1717,-0.1749,-0.1801,-0.1848,-0.1901,-0.1917,-0.1939,-0.198,-0.198,-0.1989,-0.1993,-0.2004,-0.2015,-0.2019,-0.1973,-0.1973,-0.1974,-0.1974,0,0,-0.1429,-0.1509,-0.1517,-0.1545,-0.1606,-0.1639,-0.1679,-0.173,-0.1753,-0.1797,-0.1832,-0.1894,-0.1904,-0.1936,-0.1962,-0.1986,-0.2006,-0.1993,-0.1995,-0.1994,-0.2054,-0.2047,-0.2051,-0.2019,-0.202,-0.2021,-0.205,0,-0.1453,-0.1524,-0.1558,-0.1615,-0.1653,-0.1684,-0.1719,-0.176,-0.1791,-0.1829,-0.1864,-0.1907,-0.1916,-0.1936,-0.1961,-0.1998,-0.2019,-0.1997,-0.2053,-0.2054,-0.2038,-0.2056,-0.2049,-0.2074,-0.2054,-0.2055,-0.2056,0,-0.149,-0.1532,-0.1592,-0.1648,-0.1666,-0.1696,-0.1746,-0.1782,-0.183,-0.1851,-0.1886,-0.1912,-0.1956,-0.1956,-0.2017,-0.2001,-0.2026,-0.2048,-0.205,-0.2057,-0.2056,-0.2064,-0.2083,-0.2087,-0.2063,-0.2062,-0.2062,0,-0.1482,-0.1555,-0.16,-0.1623,-0.169,-0.171,-0.174,-0.1787,-0.1816,-0.186,-0.1879,-0.1928,-0.1955,-0.1993,-0.2032,-0.2028,-0.209,-0.2093,-0.2109,-0.2108,-0.2121,-0.2119,-0.2144,-0.2136,-0.2136,-0.2136,-0.2136,0,-0.1505,-0.1541,-0.1598,-0.1625,-0.1666,-0.1706,-0.1746,-0.1777,-0.1819,-0.1855,-0.1885,-0.1918,-0.1966,-0.2005,-0.2036,-0.2082,-0.2094,-0.2113,-0.2121,-0.211,-0.2108,-0.2128,-0.2127,-0.2137,-0.2137,-0.2137,-0.2137,0,-0.1504,-0.1544,-0.1595,-0.1654,-0.1669,-0.1697,-0.1748,-0.1777,-0.1809,-0.1853,-0.1866,-0.1916,-0.1964,-0.2006,-0.2069,-0.209,-0.2137,-0.2147,-0.2121,-0.2125,-0.2139,-0.2137,-0.2177,-0.2184,-0.2171,-0.2171,-0.2171,0,-0.1516,-0.1544,-0.1605,-0.1631,-0.1659,-0.1699,-0.1728,-0.1769,-0.1798,-0.1855,-0.1877,-0.1927,-0.1968,-0.2043,-0.2086,-0.2135,-0.2146,-0.2157,-0.2154,-0.2142,-0.2147,-0.2144,-0.2148,-0.2157,-0.2157,-0.2156,-0.2156,0,-0.1533,-0.1551,-0.1592,-0.1639,-0.1673,-0.1712,-0.1753,-0.1772,-0.1821,-0.1852,-0.1901,-0.1933,-0.1997,-0.2046,-0.2099,-0.213,-0.2152,-0.2157,-0.2163,-0.2153,-0.2137,-0.2146,-0.212,-0.2156,-0.2156,-0.2156,-0.2156,-0.2156,-0.1539,-0.1566,-0.1613,-0.1657,-0.1691,-0.1729,-0.1758,-0.1794,-0.1834,-0.1889,-0.1911,-0.196,-0.2008,-0.2082,-0.2113,-0.2153,-0.2157,-0.2166,-0.2168,-0.217,-0.2168,-0.213,-0.2163,-0.2163,-0.2163,-0.2163,-0.2163,0,-0.1558,-0.159,-0.163,-0.1685,-0.172,-0.1736,-0.1782,-0.181,-0.1853,-0.1895,-0.1935,-0.1991,-0.2039,-0.2086,-0.2136,-0.2159,-0.217,-0.2171,-0.217,-0.2177,-0.2162,-0.2151,-0.2161,-0.2161,-0.2161,-0.2161,-0.2161,-0.2161,-0.1572,-0.1617,-0.1641,-0.1704,-0.1736,-0.1783,-0.1808,-0.1843,-0.1877,-0.1937,-0.1977,-0.2006,-0.2051,-0.2105,-0.2149,-0.2162,-0.218,-0.2178,-0.2193,-0.2178,-0.2178,-0.2177,-0.2168,-0.2181,-0.2181,-0.2205,-0.2205,-0.2205]}]]